Preview of NWS' New Version of Forecast
This preview is not operational and should not be used for support decisions.
Latest weather observations around

Emporia, Emporia Municipal Airport (KEMP)

Using English Units (Switch to International System of Units)
Date/ Time (CST) Wind (mph) Vis. (mi) Weather Sky Cond. Temp (°F) Rel. Humidity Wind Chill (°F) Heat Index (°F) Pressure Precip. (in)
Air Dwpt 6 hour Altimeter (inHg) Sea level (inHg) 1 hr 3 hr 6 hr
Max Min
Jan 18 07:53 SSE 14 0.5 Fog VV002 34 34     100% 25   29.88 29.91      
Jan 18 07:44 SE 18 0.75 Fog/Mist VV002 34 34     100% 23   29.88        
Jan 18 07:37 SE 15 1 Fog/Mist OVC002 34 34     100% 24   29.88        
Jan 18 07:21 SE 16 0.75 Fog/Mist OVC002 34 34     100% 24   29.89        
Jan 18 07:11 SE 17 1 Fog/Mist OVC002 34 34     100% 23   29.89        
Jan 18 07:04 SE 15 1.25 Fog/Mist OVC002 34 34     100% 24   29.89        
Jan 18 06:53 SE 15 1 Fog/Mist OVC002 34 34     100% 24   29.9 29.93      
Jan 18 06:43 SE 17 1 Fog/Mist OVC002 34 34     100% 23   29.91        
Jan 18 06:32 SE 17 1.25 Fog/Mist OVC002 34 34     100% 23   29.91        
Jan 18 06:11 SE 14 0.75 Fog/Mist VV003 34 34     100% 25   29.93        
Jan 18 06:03 SE 15 1 Fog/Mist OVC002 34 34     100% 24   29.93        
Jan 18 05:53 SE 15 0.75 Fog/Mist VV002 34 34     100% 24   29.92 29.96      
Jan 18 04:53 SSE 15 0.5 Fog VV002 34 34     100% 24   29.95 29.98      
Jan 18 03:53 SE 13 0.5 Fog VV002 34 34     100% 25   29.99 30.02      
Jan 18 02:53 SE 11 0.75 Fog/Mist OVC002 34 34     100% 26   30.02 30.05      
Jan 18 02:46 SE 14 1 Fog/Mist OVC002 33 33     100% 23   30.02        
Jan 18 02:35 SE 10 1.25 Fog/Mist OVC002 33 33     100% 25   30.03        
Jan 18 02:23 SSE 11 1.5 Fog/Mist OVC002 33 33     100% 24   30.04        
Jan 18 02:15 SSE 13 1.25 Fog/Mist OVC002 33 33     100% 24   30.04        
Jan 18 01:53 SE 8 1.75 Fog/Mist OVC003 33 33     100% 26   30.05 30.09      
Jan 18 01:32 SE 7 2 Fog/Mist OVC002 33 33     100% 27   30.07        
Jan 18 01:23 SE 9 1.25 Fog/Mist OVC002 32 32     100% 24   30.06        
Jan 18 00:53 SE 10 0.75 Fog/Mist VV003 32 32     100% 24   30.08 30.11      
Jan 17 23:53 SE 10 0.5 Fog VV002 32 32     100% 24   30.09 30.13      
Jan 17 22:53 SE 8 0.25 Fog VV002 32 32     100% 25   30.11 30.14      
Jan 17 22:04 SE 6 0.5 Fog VV002 31 31     100% 25   30.11        
Jan 17 21:56 SSE 6 1 Fog/Mist OVC002 31 31     100% 25   30.12        
Jan 17 21:53 ESE 6 1.5 Fog/Mist OVC002 31 31     100% 25   30.12 30.16      
Jan 17 21:38 ESE 3 0.75 Fog/Mist OVC002 31 31     100% 28   30.13        
Jan 17 21:26 SSE 5 1 Fog/Mist OVC002 31 31     100% 26   30.13        
Jan 17 21:16 SSE 5 1.5 Fog/Mist OVC002 31 31     100% 26   30.13        
Jan 17 21:04 SE 5 2 Fog/Mist OVC002 31 31     100% 26   30.13        
Jan 17 20:53 SSE 3 1.5 Fog/Mist OVC002 31 31     100% 28   30.14 30.17      
Jan 17 20:51 S 3 1.5 Fog/Mist OVC002 30 30     100% 27   30.14        
Jan 17 20:37 SE 5 2 Fog/Mist OVC003 31 31     100% 26   30.13        
Jan 17 19:53 E 6 4 Fog/Mist OVC003 32 32     100% 26   30.11 30.15      
Jan 17 19:48 Calm 4 Fog/Mist OVC003 32 32     100%     30.11        
Jan 17 19:30 NE 6 4 Fog/Mist OVC004 31 31     100% 25   30.1        
Jan 17 18:53 NNE 7 3 Fog/Mist OVC003 32 32     100% 26   30.11 30.15      
Jan 17 18:26 NNE 6 3 Fog/Mist OVC003 32 32     100% 26   30.1        
Jan 17 17:53 NW 3 4 Fog/Mist OVC004 32 32     100% 29   30.11 30.15      
Jan 17 17:36 Calm 4 Fog/Mist OVC004 32 32     100%     30.11        
Jan 17 16:53 W 6 4 Fog/Mist OVC006 32 32     100% 26   30.12 30.16      
Jan 17 15:53 W 5 4 Fog/Mist OVC006 33 32     96% 29   30.11 30.14      
Jan 17 14:53 WNW 8 6 Fog/Mist OVC009 34 32     92% 27   30.1 30.14      
Jan 17 14:27 NW 8 6 Fog/Mist OVC009 35 33     92% 29   30.1        
Jan 17 14:11 WNW 8 7 Cloudy OVC010 35 33     92% 29   30.1        
Jan 17 13:53 WNW 10 7 Cloudy OVC009 35 33     92% 27   30.1 30.14      
Jan 17 13:03 NW 8 6 Fog/Mist BKN010 OVC014 35 33     92% 29   30.12        
Jan 17 12:53 NW 8 6 Fog/Mist BKN009 OVC014 36 34     92% 30   30.12 30.16      
Jan 17 11:53 WNW 7 4 Fog/Mist OVC008 35 34     96% 29   30.14 30.18      
Jan 17 10:53 WNW 8 4 Fog/Mist OVC007 34 33     96% 27   30.16 30.19      
Jan 17 10:15 W 7 3 Fog/Mist BKN005 OVC009 33 33     100% 27   30.15        
Jan 17 09:53 WNW 6 2.5 Fog/Mist OVC004 32 32     100% 26   30.13 30.17      
Jan 17 09:36 NW 8 2 Fog/Mist OVC004 32 32     100% 25   30.12        
Jan 17 09:15 NW 9 1.75 Fog/Mist OVC004 32 32     100% 24   30.11        
Jan 17 08:53 NW 7 2.5 Fog/Mist OVC005 32 32     100% 26   30.11 30.14      
Jan 17 08:34 NW 6 3 Fog/Mist OVC006 32 32     100% 26   30.11        
Jan 17 08:14 NW 7 2.5 Fog/Mist OVC008 32 32     100% 26   30.11        
Jan 17 07:53 NW 6 4 Fog/Mist OVC009 31 31     100% 25   30.09 30.13      
Jan 17 07:46 NW 5 4 Fog/Mist OVC009 31 31     100% 26   30.09        
Jan 17 07:33 NW 6 4 Fog/Mist SCT003 OVC011 31 31     100% 25   30.09        
Jan 17 07:19 NW 5 3 Fog/Mist BKN003 OVC011 31 31     100% 26   30.08        
Jan 17 07:09 NNW 6 1.75 Fog/Mist OVC003 32 32     100% 26   30.08        
Jan 17 06:53 NW 6 4 Fog/Mist OVC003 32 32     100% 26   30.08 30.12      
Jan 17 06:38 NNW 7 3 Fog/Mist OVC002 32 32     100% 26   30.07        
Jan 17 06:28 NNW 8 1.5 Fog/Mist OVC002 32 32     100% 25   30.07        
Jan 17 06:20 N 6 1.25 Fog/Mist OVC002 32 32     100% 26   30.07        
Jan 17 06:00 NNW 9 1.5 Fog/Mist OVC003 32 32     100% 24   30.07        
Jan 17 05:53 NNW 8 1 Fog/Mist VV002 32 32     100% 25   30.07 30.11      
Jan 17 05:49 NNW 8 0.75 Fog/Mist VV002 32 32     100% 25   30.07        
Jan 17 05:41 NNW 9 1 Fog/Mist VV003 32 32     100% 24   30.06        
Jan 17 04:53 NNW 9 0.5 Fog VV002 32 32     100% 24   30.06 30.09      
Jan 17 04:24 NNW 7 0.75 Fog/Mist VV002 32 32     100% 26   30.05        
Jan 17 04:16 N 7 1 Fog/Mist OVC002 32 32     100% 26   30.05        
Jan 17 04:06 NNW 9 0.75 Fog/Mist OVC002 32 32     100% 24   30.06        
Jan 17 03:53 NNW 8 1 Fog/Mist VV003 32 32     100% 25   30.05 30.09      
Jan 17 03:46 NNW 8 1 Fog/Mist VV003 32 32     100% 25   30.05        
Jan 17 02:53 N 7 0.5 Fog VV002 32 32     100% 26   30.04 30.08      
Jan 17 01:53 N 6 0.25 Fog VV002 32 32     100% 26   30.04 30.07      
Jan 17 00:53 NNE 7 0.5 Fog VV003 32 32     100% 26   30.04 30.08      
Jan 17 00:23 NNE 6 0.75 Fog/Mist VV003 32 32     100% 26   30.05        
Jan 17 00:13 NNE 7 1 Fog/Mist OVC002 32 32     100% 26   30.05        
Jan 16 23:53 NE 6 1.25 Fog/Mist OVC002 32 32     100% 26   30.06 30.09     0
Jan 16 23:44 NE 5 1.25 Fog/Mist OVC002 32 32     100% 27   30.06        
Jan 16 23:07 NE 7 1.75 Fog/Mist OVC002 32 32     100% 26   30.05        
Jan 16 22:53 NE 6 2 Fog/Mist OVC002 32 32     100% 26   30.06 30.1      
Jan 16 22:13 NNE 7 2 Fog/Mist OVC003 32 32     100% 26   30.06        
Jan 16 21:53 ENE 9 3 Fog/Mist OVC002 33 33     100% 25   30.06 30.1      
Jan 16 20:53 NE 6 4 Fog/Mist OVC003 33 33     100% 28   30.05 30.09   0  
Jan 16 20:17 ENE 8 3 Fog/Mist OVC003 32 32     100% 25   30.05        
Jan 16 19:53 ENE 8 2.5 Fog/Mist OVC003 32 32     100% 25   30.05 30.09 0    
Jan 16 19:28 ENE 6 2 Fog/Mist OVC003 32 32     100% 26   30.06   0    
Jan 16 19:00 ENE 7 1.75 Unknown Precipitation and Fog/Mist OVC002 32 32     100% 26   30.06   0    
Jan 16 18:53 ENE 8 2 Unknown Precipitation and Fog/Mist OVC002 32 32     100% 25   30.06 30.1 0    
Jan 16 18:30 NE 8 2.5 Fog/Mist OVC002 32 32     100% 25   30.05        
Jan 16 18:10 NE 8 3 Fog/Mist OVC002 32 32     100% 25   30.05        
Jan 16 17:53 ENE 9 2.5 Fog/Mist OVC002 32 32     100% 24   30.05 30.08      
Jan 16 17:26 ENE 9 2 Fog/Mist OVC002 32 32     100% 24   30.04        
Jan 16 16:53 ENE 10 1.5 Fog/Mist OVC002 32 32     100% 24   30.05 30.09      
Jan 16 16:29 NE 8 1.5 Fog/Mist OVC002 33 33     100% 26   30.06        
Jan 16 16:01 ENE 9 1.25 Fog/Mist OVC002 33 33     100% 25   30.06        
Jan 16 15:53 NE 9 1 Fog/Mist OVC002 33 33     100% 25   30.06 30.1      
Jan 16 14:53 ENE 8 0.75 Fog/Mist OVC002 33 33     100% 26   30.07 30.11      
Jan 16 13:53 E 9 0.75 Fog/Mist OVC003 32 32     100% 24   30.07 30.11      
Jan 16 12:53 ENE 8 0.25 Fog VV002 32 32     100% 25   30.11 30.15      
Jan 16 11:53 ENE 8 0.25 Fog VV002 32 32     100% 25   30.15 30.19      
Jan 16 10:53 ENE 8 0.25 Fog VV002 32 32     100% 25   30.17 30.22      
Jan 16 09:53 ENE 7 0.25 Fog VV002 31 31     100% 24   30.17 30.21      
Jan 16 08:53 ENE 7 0.25 Fog VV002 31 31     100% 24   30.16 30.2      
Jan 16 07:53 NE 11 0.25 Fog VV002 32 32     100% 23   30.17 30.21      
Jan 16 06:53 ENE 7 0.25 Fog VV002 32 32     100% 26   30.17 30.21      
Jan 16 05:53 Calm 0.25 Fog VV002 32 32     100%     30.15 30.19      
Jan 16 04:53 E 3 0.25 Fog VV002 32 32     100% 29   30.15 30.18      
Jan 16 03:53 NE 5 0.25 Fog VV002 31 31     100% 26   30.15 30.19      
Jan 16 02:53 NE 5 0.25 Fog VV002 31 31     100% 26   30.15 30.19      
Jan 16 01:53 Calm 0.25 Fog VV002 30 30     100%     30.14 30.18      
Jan 16 00:53 Calm 0.25 Fog VV002 29 29     100%     30.15 30.19      
Jan 15 23:53 N 5 0.25 Fog VV002 29 29     100% 24   30.16 30.2      
Jan 15 22:53 Calm 0.25 Fog VV002 28 28     100%     30.15 30.19      
Jan 15 21:53 Calm 0.25 Fog VV002 30 30     100%     30.14 30.18      
Jan 15 20:53 WNW 3 0.25 Fog VV002 31 31     100% 28   30.14 30.18      
Jan 15 19:53 Calm 0.25 Fog VV002 32 32     100%     30.14 30.18      
Jan 15 18:53 Calm 0.25 Fog VV002 33 33     100%     30.14 30.17      
Jan 15 17:53 WNW 6 0.25 Fog VV002 34 34     100% 29   30.11 30.15      
Jan 15 17:09 NW 3 0.25 Fog VV002 34 34     100% 31   30.11        
Jan 15 17:00 WNW 5 1 Fog/Mist VV002 34 34     100% 30   30.11        
Jan 15 16:53 WNW 6 1.25 Fog/Mist CLR 34 34     100% 29   30.11 30.15      
Jan 15 16:36 WNW 6 1.75 Fog/Mist CLR 35 35     100% 30   30.12        
Jan 15 16:23 W 3 2 Fog/Mist FEW004 36 36     100% 33   30.12        
Jan 15 16:08 WSW 7 1.75 Fog/Mist SCT005 35 35     100% 29   30.13        
Jan 15 15:53 WSW 6 2.5 Fog/Mist BKN005 36 35     96% 31   30.13 30.16      
Jan 15 14:53 WSW 6 2.5 Fog/Mist OVC007 36 35     96% 31   30.12 30.16      
Jan 15 14:21 SW 6 3 Fog/Mist OVC006 35 34     96% 30   30.13        
Jan 15 13:53 SSW 6 2.5 Fog/Mist OVC005 34 34     100% 29   30.14 30.18      
Jan 15 12:53 SSW 7 2.5 Fog/Mist OVC004 32 32     100% 26   30.16 30.2      
Jan 15 11:53 SSW 8 2.5 Fog/Mist OVC004 32 32     100% 25   30.2 30.24      
Jan 15 11:46 SSW 7 2.5 Fog/Mist OVC004 32 32     100% 26   30.21        
Jan 15 11:33 SSW 7 2 Fog/Mist OVC003 32 32     100% 26   30.21        
Jan 15 11:04 S 8 1.5 Fog/Mist OVC002 31 31     100% 23   30.23        
Jan 15 10:53 S 7 1 Fog/Mist OVC002 31 31     100% 24   30.23 30.27      
Jan 15 09:53 S 9 0.25 Clear   30 30     100% 22   30.23 30.27      
Jan 15 08:53 S 10 0.25 Fog VV003 29 29     100% 20   30.21 30.26      
Jan 15 07:53 S 8 0.25 Fog VV002 28 28     100% 20   30.22 30.26      
May 15 08:14 Calm 10 Cloudy FEW017 OVC036 64 62     93%     30        
May 15 05:53 W 3 10 Mostly Cloudy BKN046 62 61     96%     29.94 29.93      
May 15 01:53 Calm 10 Light Rain SCT050 SCT070 BKN095 64 61     90%     29.94 29.91 0    
May 14 18:32   1.75 Rain and Fog/Mist FEW050 BKN060 OVC090 69 65     87%     29.82   0    
May 13 13:53 S 18 10 Clear CLR 87 69     55%   91 29.91 29.88      
May 13 06:53 S 14 10 Clear CLR 67 63     87%     29.94 29.91      
May 12 13:53 S 18 10 Cloudy OVC048 82 65     56%   84 29.85 29.82      
May 12 02:53 S 17 10 Clear CLR 72 61     68%   72 29.8 29.77      
Jun 12 07:53   10 Clear CLR 72 67     84%   73 29.87 29.83      
Jun 12 01:53 S 16 10 Clear CLR 73 66     79%   74 29.85 29.81      
Jun 11 11:53   10 Clear CLR 84 67     57%   87 29.81 29.77      
Jun 10 23:53 SSE 17 10 Clear CLR 74 67     79%   75 29.79 29.76      
Jun 10 21:53 SSE 17 10 Clear   77 69     77%   78 29.76 29.73      
Jun 10 12:53 S 22 10 Mostly Clear and Windy FEW028 82 69     65%   85 29.77 29.74      
Jun 10 09:20 S 22 10 Partly Cloudy and Windy SCT018 73 64     73%   73 29.8        
Jun 10 07:53 S 21 10 Mostly Cloudy and Windy BKN022 68 62     81%     29.81 29.78      
Jun 08 21:53 S 7 10 Clear CLR 65 55     70%     29.91 29.89      
Jun 08 18:53 SSE 6 10 Clear CLR 78 51     39%   77 29.92 29.9      
Jun 08 09:53 S 6 10 Clear CLR 73 50     44%   72 30.07 30.05      
Jun 08 07:53 Calm 10 Clear CLR 60 56     86%     30.07 30.05      
Jun 06 02:53 E 6 10 Clear CLR 68 62     81%     29.93 29.89